Lid_Strength_Index
11 10 9 8 7 7 7 7 7 6 5 2 1 3 5 7 9 9 11 11 11 12 11 12 12 12 11 11 12 12 12 12
10 10 9 9 8 8 8 8 7 6 5 4 4 5 6 8 10 11 11 12 12 12 12 12 12 12 12 12 12 13 14 14
10 10 10 10 9 9 9 9 8 7 7 7 7 7 8 9 11 12 13 13 12 12 12 13 13 12 12 13 13 14 14 14
11 10 10 10 10 10 10 10 10 9 8 9 9 8 9 11 13 13 13 14 13 13 13 13 13 13 13 13 14 14 15 14
11 10 10 10 10 11 11 10 11 10 10 10 11 10 11 12 14 14 14 14 13 13 13 13 13 13 14 14 15 15 15 14
10 11 11 11 11 11 10 11 11 11 10 11 11 12 13 14 14 14 14 14 13 14 14 13 13 14 14 15 15 15 15 14
10 10 10 11 11 11 11 11 11 11 11 13 13 13 14 15 15 15 15 14 14 14 14 14 15 13 13 14 15 15 15 15
9 9 9 10 10 10 10 12 12 12 14 14 14 14 15 15 15 15 15 14 14 15 15 15 14 12 13 14 15 15 15 15
8 9 9 10 10 10 12 13 14 14 14 14 14 14 15 15 16 16 15 15 16 16 15 15 14 12 13 14 14 15 14 14
9 9 9 10 10 11 13 13 13 13 14 14 14 14 14 15 16 15 16 16 16 16 16 15 14 12 13 14 15 15 14 13
10 9 9 10 11 12 13 13 13 13 13 14 14 15 15 15 15 16 15 16 16 16 16 16 15 13 13 13 14 15 14 13
11 10 10 12 12 12 12 13 12 13 13 14 14 14 14 15 16 16 16 16 17 17 17 17 17 15 13 12 14 14 14 14
13 12 12 13 13 13 13 13 14 14 14 14 15 15 15 15 16 16 16 17 18 18 19 18 17 16 13 12 12 12 14 14
15 14 13 15 13 14 14 14 15 15 15 15 15 15 15 16 17 17 17 17 18 18 18 19 18 17 14 13 12 12 14 14
16 16 16 17 15 15 15 15 15 15 15 16 16 16 16 16 16 17 17 18 18 18 18 18 18 18 17 15 14 14 13 14
17 17 17 18 18 18 16 15 15 15 16 16 16 16 17 16 17 17 16 16 17 17 17 18 18 17 16 16 17 17 16 17
18 19 18 19 20 19 18 16 16 17 17 16 16 16 17 18 18 16 16 15 15 15 15 17 16 15 15 14 14 14 14 17
19 19 20 19 19 19 19 17 17 16 17 16 17 17 17 18 18 19 17 15 15 15 15 15 15 15 14 14 13 13 15 19
21 21 21 20 18 19 18 17 17 18 17 16 16 17 17 17 17 17 18 19 18 14 14 14 15 14 14 13 14 18 21 22
23 22 22 22 20 21 20 19 17 16 16 16 16 16 16 17 17 17 18 17 18 20 15 15 14 14 14 13 19 19 22 24